Custer, SD

4:36 PM MDT on September 21, 2017 (GMT -0600)
Custer County

Weather History for KCUT - August, 2013

Change the Weather History Date:

Wednesday, August 28, 2013

  Actual Average Record
Temperature  
Mean Temperature 72 °F 62 °F  
Max Temperature 83 °F 76 °F 92 °F (1969)
Min Temperature 60 °F 48 °F 27 °F (1962)
Degree Days  
Heating Degree Days 0 4  
Month to date heating degree days 55 77  
Since 1 June heating degree days 290 358  
Since 1 July heating degree days 97 138  
Cooling Degree Days 7 1  
Month to date cooling degree days 58 49  
Year to date cooling degree days 132 156  
Since 1 June cooling degree days 130 155  
Growing Degree Days 21 (Base 50)    
Moisture  
Dew Point 55 °F    
Average Humidity 63    
Maximum Humidity 84    
Minimum Humidity 42    
Precipitation  
Precipitation T in 0.07 in 1.43 in (1940)
Month to date precipitation 3.95 1.91  
Year to date precipitation 15.95 14.68  
Sea Level Pressure  
Sea Level Pressure 29.95 in    
Wind  
Wind Speed 4 mph (NNW)    
Max Wind Speed 21 mph    
Max Gust Speed 28 mph    
Visibility 10 miles    
Events      
T = Trace of Precipitation, MM = Missing Value Source: NWS Daily Summary

Daily Weather History Graph

Daily Weather History Graph

Search for Another Location

Airport or City:

Trip Planner

Search our weather history database for the weather conditions in past years. The results will help you decide how hot, cold, wet, or windy it might be!

Date:

Astronomy

Aug. 28, 2013 Rise Set
Actual Time 6:13 AM MDT 7:36 PM MDT
Civil Twilight 5:43 AM MDT 8:06 PM MDT
Nautical Twilight 5:07 AM MDT 8:42 PM MDT
Astronomical Twilight 4:29 AM MDT 9:20 PM MDT
Moon No Moon Rise 2:21 PM MDT (8/28)
Length of Visible Light 14h 22m
Length of Day
13h 22m
Waning Gibbous, 47% of the Moon is Illuminated
Aug 28
Waning Gibbous
Sep 5
New
Sep 12
First Quarter
Sep 19
Full
Sep 26
Last Quarter

Hourly Weather History & Observations

Time (MDT) Temp. Heat Index Dew Point Humidity Pressure Visibility Wind Dir Wind Speed Gust Speed Precip Events Conditions
12:53 AM 66.9 °F - 51.1 °F 57% 29.93 in 10.0 mi Calm Calm - N/A   Clear
1:53 AM 64.0 °F - 50.0 °F 60% 29.92 in 10.0 mi North 3.5 mph - N/A   Clear
2:53 AM 63.0 °F - 51.1 °F 65% 29.92 in 10.0 mi NW 4.6 mph - N/A   Clear
3:53 AM 64.0 °F - 51.1 °F 63% 29.93 in 10.0 mi NW 3.5 mph - N/A   Mostly Cloudy
4:53 AM 61.0 °F - 51.1 °F 70% 29.92 in 10.0 mi NW 4.6 mph - N/A   Clear
5:53 AM 63.0 °F - 50.0 °F 63% 29.93 in 10.0 mi North 3.5 mph - N/A   Clear
6:53 AM 60.1 °F - 51.1 °F 72% 29.96 in 10.0 mi NE 4.6 mph - N/A   Clear
7:53 AM 66.0 °F - 53.1 °F 63% 29.96 in 10.0 mi Calm Calm - N/A   Clear
8:53 AM 69.1 °F - 54.0 °F 58% 29.95 in 10.0 mi Calm Calm - N/A   Clear
9:53 AM 73.0 °F - 55.0 °F 53% 29.97 in 10.0 mi Calm Calm - N/A   Clear
10:53 AM 75.9 °F - 55.9 °F 50% 29.98 in 10.0 mi Variable 4.6 mph - N/A   Clear
11:53 AM 78.1 °F - 54.0 °F 43% 29.97 in 10.0 mi SSW 5.8 mph - N/A   Clear
12:53 PM 78.1 °F - 57.9 °F 50% 29.97 in 10.0 mi Variable 5.8 mph - N/A   Clear
1:53 PM 80.1 °F 80.7 °F 59.0 °F 48% 29.97 in 10.0 mi SE 10.4 mph - N/A   Clear
2:53 PM 81.0 °F 81.6 °F 60.1 °F 49% 29.96 in 10.0 mi South 5.8 mph 18.4 mph N/A   Clear
3:53 PM 82.0 °F 82.7 °F 61.0 °F 49% 29.94 in 10.0 mi Variable 4.6 mph - N/A   Clear
4:53 PM 82.0 °F 82.4 °F 60.1 °F 47% 29.94 in 10.0 mi SSE 8.1 mph - N/A   Clear
5:53 PM 80.1 °F 80.6 °F 57.9 °F 47% 29.93 in 10.0 mi Variable 6.9 mph - N/A   Clear
6:53 PM 78.1 °F - 57.9 °F 50% 29.95 in 10.0 mi Variable 4.6 mph - N/A   Clear
7:53 PM 73.9 °F - 60.1 °F 62% 29.96 in 10.0 mi Calm Calm - N/A   Clear
8:53 PM 69.1 °F - 55.0 °F 61% 30.01 in 10.0 mi SW 8.1 mph 27.6 mph N/A   Mostly Cloudy
9:53 PM 62.1 °F - 57.0 °F 84% 30.00 in 10.0 mi NNE 6.9 mph - 0.00 in   Clear
10:53 PM 66.0 °F - 53.1 °F 63% 29.96 in 10.0 mi Calm Calm - N/A   Clear
11:53 PM 64.9 °F - 52.0 °F 63% 29.94 in 10.0 mi NW 5.8 mph - N/A   Clear